sat.trackr.live / text

‹ back to catalog

KUIPER-00294

NORAD 68594 · 2026-072X

PAYLOAD ACTIVE UNKNOWN

§ Identity

Operator
Country
US
Launch date
2026-04-04
Launch site
AFETR
Launch vehicle
Mass (kg)
RCS (m²)

External: N2YO · Heavens-Above · Gunter

§ Orbital elements

Epoch: 2026-05-25T02:27:47.047104Z

Period
93.72 min
Inclination
51.8693°
Eccentricity
0.0010521
Mean motion
15.36547106 rev/d
Perigee alt
449.1 km
Apogee alt
463.5 km
Semi-major
6,834.5 km
B*
6.2397e-4
RAAN
288.9240°
Arg perigee
302.6773°
Mean anomaly
57.3198°
Rev number
782

§ Raw data

KUIPER-002941 68594U 26072X   26145.10262786  .00022318  00000+0  62397-3 0  99942 68594  51.8693 288.9240 0010521 302.6773  57.3198 15.36547106  7824

JSON: /api/v1/satellites/68594 · /tle

For live sub-satellite position, see the globe view (requires WebGL).

§ Visibility from observer

Set your observer location to see the next 7 days of passes ≥ 10°. The values pass through the URL so the page stays shareable.

No JS? Fill the form by hand. The geolocation button needs JavaScript.